Charlo, MT (59824)

7:18 AM MDT on September 05, 2015 (GMT -0600)
KC7MRQ Station #1 | | Change Station
CLOSE
Current Station
Personal Weather Station
Location: Ronan, MT
Elevation: 3070 ft
Nearby Weather Stations

Elev 3070 ft 47.53 °N, 114.09 °W | Updated 2 minutes ago

Overcast
Overcast
48.1 °F
Feels Like 48 °F
N
0.0
Wind Variable Wind from ESE
Gusts 1.0 mph

Today
High -- | Low -- °F
--% Chance of Precip.
Yesterday
High -- | Low -- °F
Precip. -- in
7:00 AM 8:09 PM
Waning Gibbous, 48% visible
Pressure 29.86 in
Visibility 10.0 miles
Clouds Scattered Clouds 3000 ft
Mostly Cloudy 7000 ft
Overcast 8000 ft
Windchill 48 °F
Dew Point 47 °F
Humidity 95%
Rainfall 0.07 in
Snow Depth Not available.
UV 0 out of 12
Pollen 1.50 out of 12
Air Quality Not available.
Flu Activity Not available.
SPECI KMSO 051302Z 15006KT 10SM SCT030 BKN070 OVC080 10/08 A2986 RMK AO2 RAE02 P0000 T01000083
Pressure 29.86 in
Visibility 10.0 miles
Clouds Scattered Clouds 3000 ft
Mostly Cloudy 7000 ft
Overcast 8000 ft
Windchill 48 °F
Dew Point 47 °F
Humidity 95%
Rainfall 0.07 in
Snow Depth Not available.
UV 0 out of 12
Pollen 1.50 out of 12
Air Quality Not available.
Flu Activity Not available.
SPECI KMSO 051302Z 15006KT 10SM SCT030 BKN070 OVC080 10/08 A2986 RMK AO2 RAE02 P0000 T01000083

10-Day Weather Forecast

×

Almanac

Astronomy

Sep. 05, 2015 Rise Set
Actual Time
Civil Twilight
Nautical Twilight
Astronomical Twilight
Moon
Length of Visible Light
Length of Day
Tomorrow will be .
, % of the Moon is Illuminated

Today's Extremes

State Highs State Lows

Community

WunderPhotos

Upload Photos

1,852,454 photos uploaded!

WunderBlogs® & News

Nearby

Air Quality

  Air Quality AQ Index Pollutant
Not available.

Snow Depth

Station Depth Elevation

Earthquake Activity

City Distance Mag. Time & Date
Minimum magnitude displayed is 2.5.

Coastal Water Temperatures

Place Temperature

Stations

Nearby Weather Stations

Station Location Temp. Windchill Dew Point Humidity Wind Precip. Elev Updated Type